Theta_e
336 337 337 337 337 338 338 338 339 340 342 341 342 338 338 339 340 339 342 339 341 343 339 333 332 328 331 336 339 340 340 340 341 344 342 340 344 343 336 337 335 339 335
336 336 337 337 337 337 338 337 337 340 341 343 342 338 339 338 340 341 337 331 337 330 329 330 331 336 341 338 336 337 336 334 333 336 338 338 337 341 342 338 336 335 341
338 337 338 339 339 337 338 338 337 336 339 342 340 339 334 335 340 337 333 332 331 336 340 340 340 340 338 342 344 344 342 341 336 334 338 340 339 337 335 339 339 341 340
340 341 339 340 339 338 337 339 337 337 340 339 337 334 338 335 336 335 338 331 342 345 344 344 345 345 345 344 342 341 340 337 337 331 334 338 342 342 340 337 335 334 336
342 341 341 338 336 338 338 338 338 338 340 338 337 335 338 340 342 341 342 345 339 341 343 344 343 344 342 341 341 339 337 335 331 332 330 331 334 341 343 339 332 334 335
341 341 340 337 331 335 338 338 338 337 337 338 336 335 339 341 341 340 338 335 339 342 342 343 342 341 341 342 340 337 333 328 327 328 329 330 330 329 329 329 331 339 341
340 341 339 331 331 333 337 338 338 339 337 336 336 338 339 337 334 334 333 334 335 336 339 341 343 342 341 341 340 338 334 326 324 326 325 323 323 322 325 328 329 329 330
336 337 335 329 330 332 333 340 337 338 340 346 339 339 334 334 336 333 335 335 334 334 335 342 342 341 340 338 336 333 325 318 318 319 319 317 325 331 335 336 336 335 335
333 337 331 332 332 337 338 339 339 337 337 336 338 340 338 336 340 335 331 329 326 328 338 342 342 342 342 341 337 332 323 318 315 315 313 312 312 312 312 313 314 314 315
338 337 334 340 336 339 338 339 338 339 338 338 339 339 338 335 337 334 334 333 331 339 342 343 343 343 343 343 341 334 325 322 320 319 317 315 314 314 313 312 311 310 309
339 339 340 339 337 337 336 340 341 340 341 339 341 336 337 335 337 334 336 336 339 341 342 343 343 343 343 343 342 336 335 331 326 325 324 323 322 322 322 320 319 317 315
341 341 341 337 335 336 338 339 340 342 340 336 336 337 335 334 337 334 334 337 340 342 343 343 342 342 344 346 344 341 339 342 343 333 328 328 327 327 327 326 325 325 323
337 338 338 339 335 337 337 339 339 335 337 335 336 334 333 334 337 331 331 339 342 342 342 342 344 346 345 344 343 342 341 344 345 345 342 335 330 330 330 329 329 329 328
336 336 335 334 332 334 335 339 338 338 336 335 334 334 333 336 334 332 334 338 340 342 345 345 345 346 345 343 342 343 343 344 345 346 345 344 342 339 340 338 334 331 331
335 334 334 333 333 333 335 335 336 337 333 334 334 335 334 336 334 340 344 345 346 345 344 344 345 346 345 343 345 344 344 343 343 344 345 345 345 345 343 344 342 340 335
334 335 335 334 335 334 333 333 333 333 332 335 335 336 336 336 335 345 344 343 343 343 341 342 344 344 343 344 345 344 345 344 345 344 344 345 345 346 346 345 345 344 342
333 334 336 335 334 335 335 337 339 337 335 333 338 337 336 333 338 344 342 341 340 341 340 342 345 345 343 343 345 345 345 345 345 346 346 346 346 346 346 346 345 345 344
340 341 343 342 340 342 340 342 343 342 338 338 341 339 335 336 343 343 342 343 340 341 342 345 345 345 344 344 344 345 344 345 345 345 346 347 347 347 346 346 346 344 343
342 343 345 345 342 342 343 343 345 345 345 339 341 339 336 336 342 341 341 343 340 342 343 344 347 346 344 345 346 345 346 346 345 345 345 346 347 346 346 346 345 343 342
343 343 343 344 342 342 341 343 345 346 345 344 343 338 334 333 335 334 339 340 339 341 342 347 347 344 345 346 345 346 345 344 345 345 345 345 343 343 342 341 342 341 341
343 343 343 344 343 344 344 344 345 345 345 344 342 340 339 344 345 342 341 340 341 340 346 348 347 343 345 346 345 345 347 345 345 344 342 340 339 339 340 340 341 342 343
342 343 343 345 345 344 344 345 346 345 344 345 343 340 338 344 344 345 341 339 341 344 346 348 346 345 345 345 346 344 348 345 344 341 339 339 339 340 340 341 341 342 345
342 343 344 345 345 343 345 345 347 348 348 346 345 343 338 342 342 343 339 340 343 343 344 346 347 347 345 344 347 346 345 344 343 343 342 341 340 339 340 341 342 342 342
342 343 344 345 345 343 344 344 346 348 348 346 340 342 342 341 341 338 339 341 345 343 345 345 347 347 347 343 347 348 346 341 339 339 338 339 340 340 338 337 338 340 344
342 343 343 344 345 342 343 343 345 346 346 347 342 339 341 340 340 339 341 344 346 345 346 348 349 340 334 341 347 348 345 342 342 340 338 336 335 336 333 329 333 338 345
342 343 343 344 344 342 340 341 344 344 346 344 346 339 339 339 341 342 345 347 345 346 345 346 349 347 345 340 344 345 346 345 343 341 336 333 332 329 329 331 335 344 346
Wind_Speed
19 17 14 14 16 16 18 18 17 16 15 16 18 26 24 18 18 19 21 19 19 19 20 20 20 19 19 19 19 18 17 15 13 13 13 14 14 12 11 10 11 11 10
21 18 15 14 15 15 16 18 17 19 17 18 24 26 22 19 18 19 17 18 18 20 21 21 21 20 18 19 18 16 15 14 12 10 10 10 11 10 10 10 10 10 9
20 18 15 15 14 15 16 18 20 19 20 24 30 23 22 21 22 17 17 17 20 21 20 21 19 18 18 17 16 15 14 13 12 9 8 9 10 8 8 7 7 8 7
20 18 17 14 14 15 15 17 19 22 25 29 28 23 25 23 17 16 17 17 19 18 18 18 16 14 13 13 13 13 13 13 11 10 8 7 8 8 7 7 5 5 5
21 19 17 16 15 15 16 16 18 20 25 24 24 24 18 16 16 17 16 15 17 18 17 17 17 17 15 16 15 15 14 13 11 9 7 6 5 6 6 5 5 5 5
21 20 18 16 15 15 16 17 18 19 20 19 18 16 16 15 17 16 15 14 14 14 14 16 15 16 16 15 14 15 16 11 10 8 6 5 3 2 1 3 4 5 4
21 20 18 16 14 14 15 17 18 17 17 17 16 15 15 14 13 14 13 12 11 12 12 14 14 15 13 12 14 15 17 13 10 8 6 4 4 5 5 5 5 3 2
20 18 17 15 13 15 16 17 19 20 17 13 14 14 14 14 13 13 12 11 9 9 11 14 15 14 13 15 17 16 16 14 12 10 8 7 9 8 8 8 7 6 4
18 18 16 15 15 15 16 17 19 19 17 14 13 13 14 14 12 12 12 11 11 13 16 15 14 13 14 15 16 17 17 16 15 14 13 12 11 10 9 7 6 5 4
19 17 16 16 17 17 16 16 17 17 16 15 13 13 14 13 13 13 13 13 14 17 17 14 11 12 12 12 13 17 17 17 17 16 16 15 14 13 13 13 12 10 8
20 17 17 17 19 18 17 16 14 15 15 15 13 13 15 14 15 14 14 14 16 16 14 11 11 11 12 13 13 15 17 18 18 17 16 15 14 14 15 14 13 13 12
22 20 18 19 19 19 18 17 16 15 15 16 15 15 16 15 15 15 15 16 16 14 12 9 8 7 8 10 11 12 11 16 17 16 15 14 15 15 15 14 14 14 13
23 22 22 20 20 19 20 18 17 17 16 16 15 16 16 17 17 16 16 18 16 12 9 6 4 4 7 8 9 9 7 10 13 13 14 14 14 15 15 15 14 14 14
23 22 22 20 20 20 19 18 16 16 16 15 15 16 17 19 19 19 19 17 15 11 8 5 4 6 8 8 7 8 7 8 8 9 9 11 13 13 13 14 14 14 13
23 22 22 22 21 20 18 17 17 17 17 16 16 15 17 19 22 21 20 16 14 10 7 6 4 5 6 6 6 5 8 8 8 8 7 7 9 10 10 11 12 12 12
23 22 22 22 21 19 18 18 17 18 18 18 16 16 17 20 22 21 18 15 12 10 9 7 3 1 2 3 5 6 3 6 7 7 7 7 7 7 8 9 9 9 9
24 24 22 20 21 20 18 17 18 18 19 20 17 18 17 20 25 22 16 13 11 10 10 7 2 1 2 3 5 7 6 4 3 3 4 5 6 7 7 7 8 8 8
23 22 19 20 20 19 17 15 14 17 21 21 18 20 19 23 25 21 16 12 11 9 9 6 2 1 1 3 5 8 8 6 6 5 5 6 6 6 6 7 7 8 8
22 21 20 18 18 20 18 19 14 14 18 21 21 21 21 24 25 20 15 12 10 9 8 5 3 1 2 4 6 9 9 7 7 7 7 9 9 7 5 6 7 7 7
24 21 20 19 16 17 20 19 18 16 16 21 22 23 23 24 23 19 16 14 11 11 8 4 3 2 3 6 8 7 6 6 7 8 8 8 7 5 4 4 5 5 6
29 27 23 22 20 19 20 22 21 19 18 18 23 24 26 24 22 19 17 14 11 12 8 4 3 4 5 9 9 4 4 5 6 7 6 3 7 5 6 7 6 6 6
31 30 27 24 22 22 21 22 20 18 17 17 17 24 26 25 21 17 14 12 12 10 7 5 6 5 7 9 10 6 4 3 5 4 3 3 5 5 6 7 7 6 6
35 34 30 26 22 25 25 22 22 21 19 19 21 22 26 26 21 17 15 14 12 13 10 9 9 8 8 7 8 6 4 3 8 4 6 6 7 7 8 10 10 9 8
38 36 33 29 25 25 29 26 26 23 23 21 21 23 25 25 22 20 19 17 16 15 11 10 10 12 12 7 8 7 6 7 5 6 6 7 7 10 11 13 12 13 12
42 40 36 32 28 27 31 30 30 25 21 17 17 19 23 25 23 23 20 19 19 17 15 12 12 11 11 9 8 8 7 8 8 10 14 12 11 11 11 14 11 10 10
45 43 41 37 32 29 31 33 33 30 24 23 21 20 21 24 24 24 21 19 19 19 18 14 12 12 12 12 12 12 12 12 14 14 18 20 20 16 13 11 7 6 7
Wind_Direction
161 154 141 134 123 115 112 106 113 120 131 138 133 139 133 120 121 117 117 107 110 107 109 109 109 105 100 94 90 87 83 81 83 85 85 80 76 74 85 97 101 96 99
157 155 149 143 136 125 118 107 102 110 116 127 127 136 132 121 128 124 114 112 115 111 108 107 106 104 99 95 89 89 80 75 71 71 75 80 93 88 83 88 98 97 92
157 153 155 146 142 138 126 114 105 102 111 117 132 129 125 126 126 125 118 116 115 107 107 105 101 100 97 89 81 75 69 67 65 70 69 70 72 78 81 89 93 91 94
162 158 157 149 147 146 139 128 119 104 119 120 125 126 117 120 121 120 119 118 112 113 111 105 96 96 93 86 74 67 60 56 57 57 57 66 78 72 66 72 78 89 83
157 157 153 147 147 148 149 140 132 120 121 124 128 129 120 123 123 123 124 116 117 117 112 99 87 88 87 77 63 54 50 44 47 52 54 62 70 77 79 64 74 76 70
155 153 156 149 146 145 150 149 142 136 130 134 138 138 133 130 125 122 119 122 122 117 105 96 88 90 82 67 56 49 44 39 40 44 45 47 51 65 53 38 74 79 84
155 159 158 156 152 152 148 154 148 142 144 143 141 139 137 126 122 124 127 126 123 116 109 100 96 89 77 61 50 41 32 32 38 40 40 46 70 75 73 75 83 91 94
159 159 158 160 160 158 157 158 156 151 156 150 143 138 129 123 124 127 130 133 129 137 121 107 98 89 81 59 48 43 38 41 49 53 58 64 74 80 74 72 73 68 59
161 162 162 163 161 160 161 163 159 164 170 167 157 142 128 126 126 131 128 125 130 122 123 114 101 85 67 51 45 43 46 50 58 61 62 65 66 59 59 59 55 46 50
168 167 164 165 162 162 164 162 162 164 170 165 158 146 138 140 140 133 126 125 123 125 122 115 96 74 60 46 39 46 50 55 58 61 62 62 64 64 64 63 60 58 61
170 168 165 166 163 164 162 166 167 168 170 168 160 153 156 157 150 139 133 132 131 132 129 115 90 66 49 47 49 53 55 57 59 62 65 67 69 70 69 68 69 67 66
175 172 168 167 169 167 167 170 168 171 164 166 162 161 164 161 152 148 140 140 141 140 130 113 86 51 23 15 28 50 53 63 58 61 68 71 73 73 73 72 72 71 68
175 175 173 174 174 176 174 174 175 172 169 166 162 161 167 162 158 147 146 144 144 137 132 119 77 24 13 12 27 54 53 70 61 56 64 69 71 71 71 70 69 70 70
179 178 175 175 178 180 179 173 177 174 169 168 165 167 165 163 152 147 145 146 143 146 148 125 80 51 40 36 47 52 63 72 62 52 55 65 68 69 69 68 66 64 62
182 179 177 178 179 182 184 182 184 182 178 174 170 168 165 164 156 152 152 153 155 157 153 135 98 51 35 40 47 50 62 76 70 61 51 55 62 61 62 63 60 59 57
182 181 180 180 182 187 188 190 190 191 188 181 176 174 170 168 167 160 160 160 161 165 167 161 154 91 44 14 22 35 40 66 72 65 58 56 54 49 49 52 52 48 47
176 179 180 180 181 183 185 188 193 193 192 191 187 180 177 175 168 168 167 165 167 170 179 183 189 15 352 328 338 345 356 1 11 20 30 33 35 31 25 28 31 31 30
180 182 181 182 185 183 187 186 191 199 200 198 192 185 181 173 172 175 174 173 178 174 182 198 239 227 210 296 310 317 324 336 335 327 333 355 358 11 10 2 8 10 13
194 191 189 192 189 190 188 193 199 201 200 195 191 189 185 181 181 183 187 189 188 185 197 210 249 283 328 339 334 318 305 312 314 318 331 329 330 331 339 341 348 359 4
200 199 193 189 188 187 191 196 201 201 200 198 194 190 185 185 191 196 200 200 200 201 207 237 253 295 314 330 335 333 327 324 319 325 337 335 340 329 327 341 340 0 4
210 206 201 199 191 194 190 192 199 200 201 197 196 193 186 186 191 196 205 202 203 200 213 272 260 283 305 331 338 331 342 332 330 334 350 355 39 41 45 41 35 35 34
215 211 206 205 202 197 197 196 198 199 199 198 193 193 194 194 199 205 201 200 203 211 231 264 254 294 315 333 332 340 339 306 313 322 336 359 8 352 348 351 354 3 5
219 216 210 209 206 206 202 202 204 200 204 203 203 196 199 202 209 211 209 205 211 216 245 268 261 287 311 316 324 356 335 333 325 303 295 298 315 335 345 348 349 328 322
222 220 215 214 211 211 209 210 212 211 207 203 205 203 203 208 210 207 208 209 218 222 247 263 265 289 293 294 308 319 324 333 337 321 320 311 292 308 318 314 312 316 320
222 220 218 216 215 214 211 214 214 212 207 212 208 210 209 207 206 202 210 221 226 232 249 256 266 284 284 269 284 298 313 316 320 322 316 308 296 311 319 317 310 315 324
223 221 219 217 215 214 212 212 214 213 210 204 209 210 212 211 211 215 222 229 230 239 249 255 265 278 284 277 276 283 291 300 304 311 311 314 313 315 329 341 334 326 319